Location: Tucson
(32.2217°N, 110.9265°W)
Time: 19:00:34
(UTC-07:00)

Envisat - Pass Details

Date: 04 October 2021
Orbit: 764 x 766 km, 98.2° (Epoch: 22 October)

Event Time Altitude Azimuth Distance (km) Brightness Sun altitude
Rises 04:46:46 0° 24° (NNE) 3,231 6.7 -20.5°
Reaches altitude 10° 04:49:18 10° 34° (NE) 2,301 6.0 -20.0°
Maximum altitude 04:53:50 33° 98° (E) 1,273 4.8 -19.0°
Drops below altitude 10° 04:58:20 10° 161° (SSE) 2,289 5.6 -18.1°
Sets 05:00:51 0° 171° (S) 3,211 6.3 -17.5°
